Date_Time,Julian_Date,Latitude,Longitude,Instrument_Depth,U,V,Speed,Direction
(yyyy-mm-dd hh:mn:ss UTC),(JD),(+ deg. North),(+ deg. East),(m),(cm/s),(cm/s),(cm/s),(deg True)
1984-01-07 18:00:00 UTC,2445707.250000,29.6650,-93.4789,0086,-5.74,-1.75,6.0000,253.0000
1984-01-07 18:30:00 UTC,2445707.270833,29.6650,-93.4789,0086,-6.97,-0.61,7.0000,265.0000
1984-01-07 19:00:00 UTC,2445707.291667,29.6650,-93.4789,0086,-7.00,0.12,7.0000,271.0000
1984-01-07 19:30:00 UTC,2445707.312500,29.6650,-93.4789,0086,-6.99,-0.37,7.0000,267.0000
1984-01-07 20:00:00 UTC,2445707.333333,29.6650,-93.4789,0086,-7.92,-1.11,8.0000,262.0000
1984-01-07 20:30:00 UTC,2445707.354167,29.6650,-93.4789,0086,-7.76,-1.94,8.0000,256.0000
1984-01-07 21:00:00 UTC,2445707.375000,29.6650,-93.4789,0086,-7.69,-2.21,8.0000,254.0000
1984-01-07 21:30:00 UTC,2445707.395833,29.6650,-93.4789,0086,-8.69,-2.33,9.0000,255.0000
1984-01-07 22:00:00 UTC,2445707.416667,29.6650,-93.4789,0086,-9.61,-2.76,10.0000,254.0000
1984-01-07 22:30:00 UTC,2445707.437500,29.6650,-93.4789,0086,-9.61,-2.76,10.0000,254.0000
1984-01-07 23:00:00 UTC,2445707.458333,29.6650,-93.4789,0086,-10.67,-2.66,11.0000,256.0000
1984-01-07 23:30:00 UTC,2445707.479167,29.6650,-93.4789,0086,-10.76,-2.29,11.0000,258.0000
1984-01-08 00:00:00 UTC,2445707.500000,29.6650,-93.4789,0086,-9.74,-2.25,10.0000,257.0000
1984-01-08 00:30:00 UTC,2445707.520833,29.6650,-93.4789,0086,-9.82,-1.91,10.0000,259.0000
1984-01-08 01:00:00 UTC,2445707.541667,29.6650,-93.4789,0086,-8.77,-2.02,9.0000,257.0000
1984-01-08 01:30:00 UTC,2445707.562500,29.6650,-93.4789,0086,-8.61,-2.63,9.0000,253.0000
1984-01-08 02:00:00 UTC,2445707.583333,29.6650,-93.4789,0086,-7.85,-1.53,8.0000,259.0000
1984-01-08 02:30:00 UTC,2445707.604167,29.6650,-93.4789,0086,-6.93,-0.97,7.0000,262.0000
1984-01-08 03:00:00 UTC,2445707.625000,29.6650,-93.4789,0086,-5.87,-1.25,6.0000,258.0000
1984-01-08 03:30:00 UTC,2445707.645833,29.6650,-93.4789,0086,-4.89,-1.04,5.0000,258.0000
1984-01-08 04:00:00 UTC,2445707.666667,29.6650,-93.4789,0086,-4.78,-1.46,5.0000,253.0000
1984-01-08 04:30:00 UTC,2445707.687500,29.6650,-93.4789,0086,-4.73,-1.63,5.0000,251.0000
1984-01-08 05:00:00 UTC,2445707.708333,29.6650,-93.4789,0086,-3.93,-0.76,4.0000,259.0000
1984-01-08 05:30:00 UTC,2445707.729167,29.6650,-93.4789,0086,-2.88,-0.83,3.0000,254.0000
1984-01-08 06:00:00 UTC,2445707.750000,29.6650,-93.4789,0086,-2.49,-1.68,3.0000,236.0000
1984-01-08 06:30:00 UTC,2445707.770833,29.6650,-93.4789,0086,-2.91,-0.73,3.0000,256.0000
1984-01-08 07:00:00 UTC,2445707.791667,29.6650,-93.4789,0086,-2.91,0.73,3.0000,284.0000
1984-01-08 07:30:00 UTC,2445707.812500,29.6650,-93.4789,0086,-0.87,0.48,1.0000,299.0000
1984-01-08 08:00:00 UTC,2445707.833333,29.6650,-93.4789,0086,0.84,-0.54,1.0000,123.0000
1984-01-08 08:30:00 UTC,2445707.854167,29.6650,-93.4789,0086,0.57,-0.82,1.0000,145.0000
1984-01-08 09:00:00 UTC,2445707.875000,29.6650,-93.4789,0086,0.07,-2.00,2.0000,178.0000
1984-01-08 09:30:00 UTC,2445707.895833,29.6650,-93.4789,0086,-0.21,-1.99,2.0000,186.0000
1984-01-08 10:00:00 UTC,2445707.916667,29.6650,-93.4789,0086,0.26,-0.97,1.0000,165.0000
1984-01-08 10:30:00 UTC,2445707.937500,29.6650,-93.4789,0086,1.78,-0.91,2.0000,117.0000
1984-01-08 11:00:00 UTC,2445707.958333,29.6650,-93.4789,0086,4.67,-1.79,5.0000,111.0000
1984-01-08 11:30:00 UTC,2445707.979167,29.6650,-93.4789,0086,5.20,-3.00,6.0000,120.0000
1984-01-08 12:00:00 UTC,2445708.000000,29.6650,-93.4789,0086,2.62,-3.02,4.0000,139.0000
1984-01-08 12:30:00 UTC,2445708.020833,29.6650,-93.4789,0086,-0.10,-3.00,3.0000,182.0000
1984-01-08 13:00:00 UTC,2445708.041667,29.6650,-93.4789,0086,-0.73,-2.91,3.0000,194.0000
1984-01-08 13:30:00 UTC,2445708.062500,29.6650,-93.4789,0086,-0.69,-3.94,4.0000,190.0000
1984-01-08 14:00:00 UTC,2445708.083333,29.6650,-93.4789,0086,-1.75,-3.60,4.0000,206.0000
1984-01-08 14:30:00 UTC,2445708.104167,29.6650,-93.4789,0086,-2.40,-1.81,3.0000,233.0000
1984-01-08 15:00:00 UTC,2445708.125000,29.6650,-93.4789,0086,-0.82,-0.57,1.0000,235.0000
1984-01-08 15:30:00 UTC,2445708.145833,29.6650,-93.4789,0086,0.56,-0.83,1.0000,146.0000
1984-01-08 16:00:00 UTC,2445708.166667,29.6650,-93.4789,0086,1.03,-1.71,2.0000,149.0000
1984-01-08 16:30:00 UTC,2445708.187500,29.6650,-93.4789,0086,0.10,-0.99,1.0000,174.0000
1984-01-08 17:00:00 UTC,2445708.208333,29.6650,-93.4789,0086,-0.87,-0.48,1.0000,241.0000
1984-01-08 17:30:00 UTC,2445708.229167,29.6650,-93.4789,0086,-1.15,-1.64,2.0000,215.0000
1984-01-08 18:00:00 UTC,2445708.250000,29.6650,-93.4789,0086,-1.41,-1.41,2.0000,225.0000
1984-01-08 18:30:00 UTC,2445708.270833,29.6650,-93.4789,0086,-0.83,0.56,1.0000,304.0000
1984-01-08 19:00:00 UTC,2445708.291667,29.6650,-93.4789,0086,-0.00,-0.00,0.0000,223.0000
1984-01-08 19:30:00 UTC,2445708.312500,29.6650,-93.4789,0086,0.19,-0.98,1.0000,169.0000
1984-01-08 20:00:00 UTC,2445708.333333,29.6650,-93.4789,0086,0.22,-0.97,1.0000,167.0000
1984-01-08 20:30:00 UTC,2445708.354167,29.6650,-93.4789,0086,-0.56,-0.83,1.0000,214.0000
1984-01-08 21:00:00 UTC,2445708.375000,29.6650,-93.4789,0086,-1.81,-0.85,2.0000,245.0000
1984-01-08 21:30:00 UTC,2445708.395833,29.6650,-93.4789,0086,-5.93,-0.94,6.0000,261.0000
1984-01-08 22:00:00 UTC,2445708.416667,29.6650,-93.4789,0086,-8.99,-0.31,9.0000,268.0000
1984-01-08 22:30:00 UTC,2445708.437500,29.6650,-93.4789,0086,-10.00,-0.00,10.0000,270.0000
1984-01-08 23:00:00 UTC,2445708.458333,29.6650,-93.4789,0086,-8.99,-0.31,9.0000,268.0000
1984-01-08 23:30:00 UTC,2445708.479167,29.6650,-93.4789,0086,-7.97,-0.70,8.0000,265.0000
1984-01-09 00:00:00 UTC,2445708.500000,29.6650,-93.4789,0086,-6.95,-0.85,7.0000,263.0000
1984-01-09 00:30:00 UTC,2445708.520833,29.6650,-93.4789,0086,-5.52,-2.34,6.0000,247.0000
1984-01-09 01:00:00 UTC,2445708.541667,29.6650,-93.4789,0086,-3.77,-3.28,5.0000,229.0000
1984-01-09 01:30:00 UTC,2445708.562500,29.6650,-93.4789,0086,-1.93,-2.30,3.0000,220.0000
1984-01-09 02:00:00 UTC,2445708.583333,29.6650,-93.4789,0086,-0.31,-1.98,2.0000,189.0000
1984-01-09 02:30:00 UTC,2445708.604167,29.6650,-93.4789,0086,-0.52,-2.95,3.0000,190.0000
1984-01-09 03:00:00 UTC,2445708.625000,29.6650,-93.4789,0086,-2.33,-1.89,3.0000,231.0000
1984-01-09 03:30:00 UTC,2445708.645833,29.6650,-93.4789,0086,-5.64,-2.05,6.0000,250.0000
1984-01-09 04:00:00 UTC,2445708.666667,29.6650,-93.4789,0086,-7.56,-2.60,8.0000,251.0000
1984-01-09 04:30:00 UTC,2445708.687500,29.6650,-93.4789,0086,-7.42,-3.00,8.0000,248.0000
1984-01-09 05:00:00 UTC,2445708.708333,29.6650,-93.4789,0086,-5.35,-2.72,6.0000,243.0000
1984-01-09 05:30:00 UTC,2445708.729167,29.6650,-93.4789,0086,-3.19,-2.41,4.0000,233.0000
1984-01-09 06:00:00 UTC,2445708.750000,29.6650,-93.4789,0086,-2.23,-2.01,3.0000,228.0000
1984-01-09 06:30:00 UTC,2445708.770833,29.6650,-93.4789,0086,-3.63,-1.69,4.0000,245.0000
1984-01-09 07:00:00 UTC,2445708.791667,29.6650,-93.4789,0086,-5.96,-0.73,6.0000,263.0000
1984-01-09 07:30:00 UTC,2445708.812500,29.6650,-93.4789,0086,-8.95,-0.94,9.0000,264.0000
1984-01-09 08:00:00 UTC,2445708.833333,29.6650,-93.4789,0086,-9.90,-1.39,10.0000,262.0000
1984-01-09 08:30:00 UTC,2445708.854167,29.6650,-93.4789,0086,-10.94,-1.15,11.0000,264.0000
1984-01-09 09:00:00 UTC,2445708.875000,29.6650,-93.4789,0086,-10.98,-0.58,11.0000,267.0000
1984-01-09 09:30:00 UTC,2445708.895833,29.6650,-93.4789,0086,-9.99,-0.52,10.0000,267.0000
1984-01-09 10:00:00 UTC,2445708.916667,29.6650,-93.4789,0086,-8.95,-0.94,9.0000,264.0000
1984-01-09 10:30:00 UTC,2445708.937500,29.6650,-93.4789,0086,-8.89,-1.41,9.0000,261.0000
1984-01-09 11:00:00 UTC,2445708.958333,29.6650,-93.4789,0086,-9.70,-2.42,10.0000,256.0000
1984-01-09 11:30:00 UTC,2445708.979167,29.6650,-93.4789,0086,-11.05,-4.69,12.0000,247.0000
1984-01-09 12:00:00 UTC,2445709.000000,29.6650,-93.4789,0086,-13.70,-6.10,15.0000,246.0000
1984-01-09 12:30:00 UTC,2445709.020833,29.6650,-93.4789,0086,-14.94,-5.73,16.0000,249.0000
1984-01-09 13:00:00 UTC,2445709.041667,29.6650,-93.4789,0086,-15.41,-7.18,17.0000,245.0000
1984-01-09 13:30:00 UTC,2445709.062500,29.6650,-93.4789,0086,-14.42,-9.01,17.0000,238.0000
1984-01-09 14:00:00 UTC,2445709.083333,29.6650,-93.4789,0086,-12.14,-8.82,15.0000,234.0000
1984-01-09 14:30:00 UTC,2445709.104167,29.6650,-93.4789,0086,-7.87,-9.06,12.0000,221.0000
1984-01-09 15:00:00 UTC,2445709.125000,29.6650,-93.4789,0086,-6.70,-11.14,13.0000,211.0000
1984-01-09 15:30:00 UTC,2445709.145833,29.6650,-93.4789,0086,-10.42,-10.79,15.0000,224.0000
1984-01-09 16:00:00 UTC,2445709.166667,29.6650,-93.4789,0086,-13.12,-7.27,15.0000,241.0000
1984-01-09 16:30:00 UTC,2445709.187500,29.6650,-93.4789,0086,-13.59,-6.34,15.0000,245.0000
1984-01-09 17:00:00 UTC,2445709.208333,29.6650,-93.4789,0086,-15.38,-4.41,16.0000,254.0000
1984-01-09 17:30:00 UTC,2445709.229167,29.6650,-93.4789,0086,-14.98,0.78,15.0000,273.0000
1984-01-09 18:00:00 UTC,2445709.250000,29.6650,-93.4789,0086,-11.98,0.63,12.0000,273.0000
1984-01-09 18:30:00 UTC,2445709.270833,29.6650,-93.4789,0086,-11.41,-3.71,12.0000,252.0000
1984-01-09 19:00:00 UTC,2445709.291667,29.6650,-93.4789,0086,-9.70,-2.42,10.0000,256.0000
1984-01-09 19:30:00 UTC,2445709.312500,29.6650,-93.4789,0086,-8.95,-0.94,9.0000,264.0000
1984-01-09 20:00:00 UTC,2445709.333333,29.6650,-93.4789,0086,-9.66,-2.59,10.0000,255.0000
1984-01-09 20:30:00 UTC,2445709.354167,29.6650,-93.4789,0086,-12.43,-3.80,13.0000,253.0000
1984-01-09 21:00:00 UTC,2445709.375000,29.6650,-93.4789,0086,-13.46,-3.86,14.0000,254.0000
1984-01-09 21:30:00 UTC,2445709.395833,29.6650,-93.4789,0086,-12.56,-3.36,13.0000,255.0000
1984-01-09 22:00:00 UTC,2445709.416667,29.6650,-93.4789,0086,-11.13,-4.50,12.0000,248.0000
1984-01-09 22:30:00 UTC,2445709.437500,29.6650,-93.4789,0086,-11.14,-6.70,13.0000,239.0000
1984-01-09 23:00:00 UTC,2445709.458333,29.6650,-93.4789,0086,-12.79,-5.69,14.0000,246.0000
1984-01-09 23:30:00 UTC,2445709.479167,29.6650,-93.4789,0086,-12.72,-2.70,13.0000,258.0000
1984-01-10 00:00:00 UTC,2445709.500000,29.6650,-93.4789,0086,-11.88,-1.67,12.0000,262.0000
1984-01-10 00:30:00 UTC,2445709.520833,29.6650,-93.4789,0086,-13.86,-1.95,14.0000,262.0000
1984-01-10 01:00:00 UTC,2445709.541667,29.6650,-93.4789,0086,-14.67,-3.12,15.0000,258.0000
1984-01-10 01:30:00 UTC,2445709.562500,29.6650,-93.4789,0086,-14.34,-4.39,15.0000,253.0000
1984-01-10 02:00:00 UTC,2445709.583333,29.6650,-93.4789,0086,-13.91,-5.62,15.0000,248.0000
1984-01-10 02:30:00 UTC,2445709.604167,29.6650,-93.4789,0086,-13.91,-5.62,15.0000,248.0000
1984-01-10 03:00:00 UTC,2445709.625000,29.6650,-93.4789,0086,-15.22,-4.94,16.0000,252.0000
1984-01-10 03:30:00 UTC,2445709.645833,29.6650,-93.4789,0086,-15.30,-4.68,16.0000,253.0000
1984-01-10 04:00:00 UTC,2445709.666667,29.6650,-93.4789,0086,-15.45,-4.14,16.0000,255.0000
1984-01-10 04:30:00 UTC,2445709.687500,29.6650,-93.4789,0086,-14.55,-3.63,15.0000,256.0000
1984-01-10 05:00:00 UTC,2445709.708333,29.6650,-93.4789,0086,-14.55,-3.63,15.0000,256.0000
1984-01-10 05:30:00 UTC,2445709.729167,29.6650,-93.4789,0086,-13.64,-3.15,14.0000,257.0000
1984-01-10 06:00:00 UTC,2445709.750000,29.6650,-93.4789,0086,-10.72,-2.47,11.0000,257.0000
1984-01-10 06:30:00 UTC,2445709.770833,29.6650,-93.4789,0086,-7.85,-1.53,8.0000,259.0000
1984-01-10 07:00:00 UTC,2445709.791667,29.6650,-93.4789,0086,-8.93,-1.10,9.0000,263.0000
1984-01-10 07:30:00 UTC,2445709.812500,29.6650,-93.4789,0086,-10.89,-1.53,11.0000,262.0000
1984-01-10 08:00:00 UTC,2445709.833333,29.6650,-93.4789,0086,-12.80,-2.26,13.0000,260.0000
1984-01-10 08:30:00 UTC,2445709.854167,29.6650,-93.4789,0086,-12.90,-1.58,13.0000,263.0000
1984-01-10 09:00:00 UTC,2445709.875000,29.6650,-93.4789,0086,-12.98,-0.68,13.0000,267.0000
1984-01-10 09:30:00 UTC,2445709.895833,29.6650,-93.4789,0086,-12.90,-1.58,13.0000,263.0000
1984-01-10 10:00:00 UTC,2445709.916667,29.6650,-93.4789,0086,-13.83,-2.19,14.0000,261.0000
1984-01-10 10:30:00 UTC,2445709.937500,29.6650,-93.4789,0086,-13.97,-0.98,14.0000,266.0000
1984-01-10 11:00:00 UTC,2445709.958333,29.6650,-93.4789,0086,-14.00,-0.24,14.0000,269.0000
1984-01-10 11:30:00 UTC,2445709.979167,29.6650,-93.4789,0086,-13.98,-0.73,14.0000,267.0000
1984-01-10 12:00:00 UTC,2445710.000000,29.6650,-93.4789,0086,-12.97,-0.91,13.0000,266.0000
1984-01-10 12:30:00 UTC,2445710.020833,29.6650,-93.4789,0086,-12.99,-0.45,13.0000,268.0000
1984-01-10 13:00:00 UTC,2445710.041667,29.6650,-93.4789,0086,-12.95,1.13,13.0000,275.0000
1984-01-10 13:30:00 UTC,2445710.062500,29.6650,-93.4789,0086,-12.72,2.70,13.0000,282.0000
1984-01-10 14:00:00 UTC,2445710.083333,29.6650,-93.4789,0086,-12.36,4.02,13.0000,288.0000
1984-01-10 14:30:00 UTC,2445710.104167,29.6650,-93.4789,0086,-12.14,4.66,13.0000,291.0000
1984-01-10 15:00:00 UTC,2445710.125000,29.6650,-93.4789,0086,-12.79,5.69,14.0000,294.0000
1984-01-10 15:30:00 UTC,2445710.145833,29.6650,-93.4789,0086,-12.24,6.79,14.0000,299.0000
1984-01-10 16:00:00 UTC,2445710.166667,29.6650,-93.4789,0086,-12.12,7.00,14.0000,300.0000
1984-01-10 16:30:00 UTC,2445710.187500,29.6650,-93.4789,0086,-11.68,5.70,13.0000,296.0000
1984-01-10 17:00:00 UTC,2445710.208333,29.6650,-93.4789,0086,-11.97,5.08,13.0000,293.0000
1984-01-10 17:30:00 UTC,2445710.229167,29.6650,-93.4789,0086,-12.22,4.45,13.0000,290.0000
1984-01-10 18:00:00 UTC,2445710.250000,29.6650,-93.4789,0086,-12.36,4.02,13.0000,288.0000
1984-01-10 18:30:00 UTC,2445710.270833,29.6650,-93.4789,0086,-11.41,3.71,12.0000,288.0000
1984-01-10 19:00:00 UTC,2445710.291667,29.6650,-93.4789,0086,-11.54,3.31,12.0000,286.0000
1984-01-10 19:30:00 UTC,2445710.312500,29.6650,-93.4789,0086,-11.59,3.11,12.0000,285.0000
1984-01-10 20:00:00 UTC,2445710.333333,29.6650,-93.4789,0086,-10.76,2.29,11.0000,282.0000
1984-01-10 20:30:00 UTC,2445710.354167,29.6650,-93.4789,0086,-9.95,1.05,10.0000,276.0000
1984-01-10 21:00:00 UTC,2445710.375000,29.6650,-93.4789,0086,-9.95,1.05,10.0000,276.0000
1984-01-10 21:30:00 UTC,2445710.395833,29.6650,-93.4789,0086,-8.61,2.63,9.0000,287.0000
1984-01-10 22:00:00 UTC,2445710.416667,29.6650,-93.4789,0086,-7.87,4.36,9.0000,299.0000
1984-01-10 22:30:00 UTC,2445710.437500,29.6650,-93.4789,0086,-7.95,4.23,9.0000,298.0000
1984-01-10 23:00:00 UTC,2445710.458333,29.6650,-93.4789,0086,-9.40,3.42,10.0000,290.0000
1984-01-10 23:30:00 UTC,2445710.479167,29.6650,-93.4789,0086,-10.76,2.29,11.0000,282.0000
1984-01-11 00:00:00 UTC,2445710.500000,29.6650,-93.4789,0086,-9.96,0.87,10.0000,275.0000
1984-01-11 00:30:00 UTC,2445710.520833,29.6650,-93.4789,0086,-9.00,-0.16,9.0000,269.0000
1984-01-11 01:00:00 UTC,2445710.541667,29.6650,-93.4789,0086,-9.00,-0.00,9.0000,270.0000
1984-01-11 01:30:00 UTC,2445710.562500,29.6650,-93.4789,0086,-7.98,0.56,8.0000,274.0000
1984-01-11 02:00:00 UTC,2445710.583333,29.6650,-93.4789,0086,-7.98,0.56,8.0000,274.0000
1984-01-11 02:30:00 UTC,2445710.604167,29.6650,-93.4789,0086,-7.97,0.70,8.0000,275.0000
1984-01-11 03:00:00 UTC,2445710.625000,29.6650,-93.4789,0086,-6.95,0.85,7.0000,277.0000
1984-01-11 03:30:00 UTC,2445710.645833,29.6650,-93.4789,0086,-4.94,0.78,5.0000,279.0000
1984-01-11 04:00:00 UTC,2445710.666667,29.6650,-93.4789,0086,-2.82,1.03,3.0000,290.0000
1984-01-11 04:30:00 UTC,2445710.687500,29.6650,-93.4789,0086,-0.78,0.63,1.0000,309.0000
1984-01-11 05:00:00 UTC,2445710.708333,29.6650,-93.4789,0086,-1.70,1.06,2.0000,302.0000
1984-01-11 05:30:00 UTC,2445710.729167,29.6650,-93.4789,0086,-1.84,0.78,2.0000,293.0000
1984-01-11 06:00:00 UTC,2445710.750000,29.6650,-93.4789,0086,-1.87,0.72,2.0000,291.0000
1984-01-11 06:30:00 UTC,2445710.770833,29.6650,-93.4789,0086,-2.40,1.81,3.0000,307.0000
1984-01-11 07:00:00 UTC,2445710.791667,29.6650,-93.4789,0086,-1.68,2.49,3.0000,326.0000
1984-01-11 07:30:00 UTC,2445710.812500,29.6650,-93.4789,0086,-0.36,0.93,1.0000,339.0000
1984-01-11 08:00:00 UTC,2445710.833333,29.6650,-93.4789,0086,-0.68,0.73,1.0000,317.0000
1984-01-11 08:30:00 UTC,2445710.854167,29.6650,-93.4789,0086,-1.92,0.55,2.0000,286.0000
1984-01-11 09:00:00 UTC,2445710.875000,29.6650,-93.4789,0086,-3.00,-0.00,3.0000,270.0000
1984-01-11 09:30:00 UTC,2445710.895833,29.6650,-93.4789,0086,-3.98,0.42,4.0000,276.0000
1984-01-11 10:00:00 UTC,2445710.916667,29.6650,-93.4789,0086,-3.78,1.30,4.0000,289.0000
1984-01-11 10:30:00 UTC,2445710.937500,29.6650,-93.4789,0086,-3.46,2.00,4.0000,300.0000
1984-01-11 11:00:00 UTC,2445710.958333,29.6650,-93.4789,0086,-3.19,2.41,4.0000,307.0000
1984-01-11 11:30:00 UTC,2445710.979167,29.6650,-93.4789,0086,-2.49,1.68,3.0000,304.0000
1984-01-11 12:00:00 UTC,2445711.000000,29.6650,-93.4789,0086,-2.70,1.32,3.0000,296.0000
1984-01-11 12:30:00 UTC,2445711.020833,29.6650,-93.4789,0086,-2.85,0.93,3.0000,288.0000
1984-01-11 13:00:00 UTC,2445711.041667,29.6650,-93.4789,0086,-3.91,0.83,4.0000,282.0000
1984-01-11 13:30:00 UTC,2445711.062500,29.6650,-93.4789,0086,-4.94,0.78,5.0000,279.0000
1984-01-11 14:00:00 UTC,2445711.083333,29.6650,-93.4789,0086,-4.96,0.61,5.0000,277.0000
1984-01-11 14:30:00 UTC,2445711.104167,29.6650,-93.4789,0086,-5.96,0.73,6.0000,277.0000
1984-01-11 15:00:00 UTC,2445711.125000,29.6650,-93.4789,0086,-5.85,1.35,6.0000,283.0000
1984-01-11 15:30:00 UTC,2445711.145833,29.6650,-93.4789,0086,-4.70,1.71,5.0000,290.0000
1984-01-11 16:00:00 UTC,2445711.166667,29.6650,-93.4789,0086,-2.67,1.36,3.0000,297.0000
1984-01-11 16:30:00 UTC,2445711.187500,29.6650,-93.4789,0086,-0.75,0.66,1.0000,311.0000
1984-01-11 17:00:00 UTC,2445711.208333,29.6650,-93.4789,0086,-0.94,0.34,1.0000,290.0000
1984-01-11 17:30:00 UTC,2445711.229167,29.6650,-93.4789,0086,-1.53,-1.29,2.0000,230.0000
1984-01-11 18:00:00 UTC,2445711.250000,29.6650,-93.4789,0086,-2.52,-3.11,4.0000,219.0000
1984-01-11 18:30:00 UTC,2445711.270833,29.6650,-93.4789,0086,-2.78,-2.88,4.0000,224.0000
1984-01-11 19:00:00 UTC,2445711.291667,29.6650,-93.4789,0086,-1.97,-2.26,3.0000,221.0000
1984-01-11 19:30:00 UTC,2445711.312500,29.6650,-93.4789,0086,-0.44,-4.98,5.0000,185.0000
1984-01-11 20:00:00 UTC,2445711.333333,29.6650,-93.4789,0086,1.87,-8.80,9.0000,168.0000
1984-01-11 20:30:00 UTC,2445711.354167,29.6650,-93.4789,0086,3.03,-10.57,11.0000,164.0000
1984-01-11 21:00:00 UTC,2445711.375000,29.6650,-93.4789,0086,2.25,-9.74,10.0000,167.0000
1984-01-11 21:30:00 UTC,2445711.395833,29.6650,-93.4789,0086,1.22,-9.93,10.0000,173.0000
1984-01-11 22:00:00 UTC,2445711.416667,29.6650,-93.4789,0086,-0.78,-8.97,9.0000,185.0000
1984-01-11 22:30:00 UTC,2445711.437500,29.6650,-93.4789,0086,-2.47,-7.61,8.0000,198.0000
1984-01-11 23:00:00 UTC,2445711.458333,29.6650,-93.4789,0086,-3.66,-8.22,9.0000,204.0000
1984-01-11 23:30:00 UTC,2445711.479167,29.6650,-93.4789,0086,-3.52,-8.28,9.0000,203.0000
1984-01-12 00:00:00 UTC,2445711.500000,29.6650,-93.4789,0086,-3.76,-7.06,8.0000,208.0000
1984-01-12 00:30:00 UTC,2445711.520833,29.6650,-93.4789,0086,-4.21,-5.59,7.0000,217.0000
1984-01-12 01:00:00 UTC,2445711.541667,29.6650,-93.4789,0086,-4.95,-4.95,7.0000,225.0000
1984-01-12 01:30:00 UTC,2445711.562500,29.6650,-93.4789,0086,-7.06,-3.76,8.0000,242.0000
1984-01-12 02:00:00 UTC,2445711.583333,29.6650,-93.4789,0086,-8.51,-2.93,9.0000,251.0000
1984-01-12 02:30:00 UTC,2445711.604167,29.6650,-93.4789,0086,-8.16,-3.80,9.0000,245.0000
1984-01-12 03:00:00 UTC,2445711.625000,29.6650,-93.4789,0086,-8.02,-4.09,9.0000,243.0000
1984-01-12 03:30:00 UTC,2445711.645833,29.6650,-93.4789,0086,-9.27,-3.75,10.0000,248.0000
1984-01-12 04:00:00 UTC,2445711.666667,29.6650,-93.4789,0086,-9.34,-3.58,10.0000,249.0000
1984-01-12 04:30:00 UTC,2445711.687500,29.6650,-93.4789,0086,-8.91,-4.54,10.0000,243.0000
1984-01-12 05:00:00 UTC,2445711.708333,29.6650,-93.4789,0086,-8.75,-4.85,10.0000,241.0000
1984-01-12 05:30:00 UTC,2445711.729167,29.6650,-93.4789,0086,-7.87,-4.36,9.0000,241.0000
1984-01-12 06:00:00 UTC,2445711.750000,29.6650,-93.4789,0086,-7.63,-4.77,9.0000,238.0000
1984-01-12 06:30:00 UTC,2445711.770833,29.6650,-93.4789,0086,-6.55,-4.59,8.0000,235.0000
1984-01-12 07:00:00 UTC,2445711.791667,29.6650,-93.4789,0086,-4.68,-5.20,7.0000,222.0000
1984-01-12 07:30:00 UTC,2445711.812500,29.6650,-93.4789,0086,-2.91,-5.25,6.0000,209.0000
1984-01-12 08:00:00 UTC,2445711.833333,29.6650,-93.4789,0086,-4.59,-5.28,7.0000,221.0000
1984-01-12 08:30:00 UTC,2445711.854167,29.6650,-93.4789,0086,-7.00,-3.88,8.0000,241.0000
1984-01-12 09:00:00 UTC,2445711.875000,29.6650,-93.4789,0086,-8.65,-2.48,9.0000,254.0000
1984-01-12 09:30:00 UTC,2445711.895833,29.6650,-93.4789,0086,-9.56,-2.92,10.0000,253.0000
1984-01-12 10:00:00 UTC,2445711.916667,29.6650,-93.4789,0086,-10.34,-3.76,11.0000,250.0000
1984-01-12 10:30:00 UTC,2445711.937500,29.6650,-93.4789,0086,-9.89,-4.82,11.0000,244.0000
1984-01-12 11:00:00 UTC,2445711.958333,29.6650,-93.4789,0086,-9.33,-5.83,11.0000,238.0000
1984-01-12 11:30:00 UTC,2445711.979167,29.6650,-93.4789,0086,-9.21,-3.91,10.0000,247.0000
1984-01-12 12:00:00 UTC,2445712.000000,29.6650,-93.4789,0086,-8.61,-2.63,9.0000,253.0000
1984-01-12 12:30:00 UTC,2445712.020833,29.6650,-93.4789,0086,-8.22,-3.66,9.0000,246.0000
1984-01-12 13:00:00 UTC,2445712.041667,29.6650,-93.4789,0086,-9.46,-3.26,10.0000,251.0000
1984-01-12 13:30:00 UTC,2445712.062500,29.6650,-93.4789,0086,-11.64,-2.90,12.0000,256.0000
1984-01-12 14:00:00 UTC,2445712.083333,29.6650,-93.4789,0086,-12.43,-3.80,13.0000,253.0000
1984-01-12 14:30:00 UTC,2445712.104167,29.6650,-93.4789,0086,-12.22,-4.45,13.0000,250.0000
1984-01-12 15:00:00 UTC,2445712.125000,29.6650,-93.4789,0086,-11.20,-4.30,12.0000,249.0000
1984-01-12 15:30:00 UTC,2445712.145833,29.6650,-93.4789,0086,-11.13,-4.50,12.0000,248.0000
1984-01-12 16:00:00 UTC,2445712.166667,29.6650,-93.4789,0086,-9.40,-3.42,10.0000,250.0000
1984-01-12 16:30:00 UTC,2445712.187500,29.6650,-93.4789,0086,-8.69,-2.33,9.0000,255.0000
1984-01-12 17:00:00 UTC,2445712.208333,29.6650,-93.4789,0086,-7.69,-2.21,8.0000,254.0000
1984-01-12 17:30:00 UTC,2445712.229167,29.6650,-93.4789,0086,-7.56,-2.60,8.0000,251.0000
1984-01-12 18:00:00 UTC,2445712.250000,29.6650,-93.4789,0086,-7.65,-2.34,8.0000,253.0000
1984-01-12 18:30:00 UTC,2445712.270833,29.6650,-93.4789,0086,-8.69,-2.33,9.0000,255.0000
1984-01-12 19:00:00 UTC,2445712.291667,29.6650,-93.4789,0086,-8.46,-3.08,9.0000,250.0000
1984-01-12 19:30:00 UTC,2445712.312500,29.6650,-93.4789,0086,-7.42,-3.00,8.0000,248.0000
1984-01-12 20:00:00 UTC,2445712.333333,29.6650,-93.4789,0086,-6.58,-2.39,7.0000,250.0000
1984-01-12 20:30:00 UTC,2445712.354167,29.6650,-93.4789,0086,-6.54,-2.51,7.0000,249.0000
1984-01-12 21:00:00 UTC,2445712.375000,29.6650,-93.4789,0086,-5.39,-2.63,6.0000,244.0000
1984-01-12 21:30:00 UTC,2445712.395833,29.6650,-93.4789,0086,-5.39,-2.63,6.0000,244.0000
1984-01-12 22:00:00 UTC,2445712.416667,29.6650,-93.4789,0086,-6.58,-2.39,7.0000,250.0000
1984-01-12 22:30:00 UTC,2445712.437500,29.6650,-93.4789,0086,-8.73,-2.18,9.0000,256.0000
1984-01-12 23:00:00 UTC,2445712.458333,29.6650,-93.4789,0086,-8.93,-1.10,9.0000,263.0000
1984-01-12 23:30:00 UTC,2445712.479167,29.6650,-93.4789,0086,-8.99,-0.31,9.0000,268.0000
1984-01-13 00:00:00 UTC,2445712.500000,29.6650,-93.4789,0086,-8.99,-0.47,9.0000,267.0000
1984-01-13 00:30:00 UTC,2445712.520833,29.6650,-93.4789,0086,-10.96,-0.96,11.0000,265.0000
1984-01-13 01:00:00 UTC,2445712.541667,29.6650,-93.4789,0086,-11.85,-1.88,12.0000,261.0000
1984-01-13 01:30:00 UTC,2445712.562500,29.6650,-93.4789,0086,-12.67,-2.92,13.0000,257.0000
1984-01-13 02:00:00 UTC,2445712.583333,29.6650,-93.4789,0086,-13.64,-3.15,14.0000,257.0000
1984-01-13 02:30:00 UTC,2445712.604167,29.6650,-93.4789,0086,-13.74,-2.67,14.0000,259.0000
1984-01-13 03:00:00 UTC,2445712.625000,29.6650,-93.4789,0086,-13.69,-2.91,14.0000,258.0000
1984-01-13 03:30:00 UTC,2445712.645833,29.6650,-93.4789,0086,-13.64,-3.15,14.0000,257.0000
1984-01-13 04:00:00 UTC,2445712.666667,29.6650,-93.4789,0086,-12.67,-2.92,13.0000,257.0000
1984-01-13 04:30:00 UTC,2445712.687500,29.6650,-93.4789,0086,-11.74,-2.49,12.0000,258.0000
1984-01-13 05:00:00 UTC,2445712.708333,29.6650,-93.4789,0086,-10.76,-2.29,11.0000,258.0000
1984-01-13 05:30:00 UTC,2445712.729167,29.6650,-93.4789,0086,-9.40,-3.42,10.0000,250.0000
1984-01-13 06:00:00 UTC,2445712.750000,29.6650,-93.4789,0086,-8.48,-5.30,10.0000,238.0000
1984-01-13 06:30:00 UTC,2445712.770833,29.6650,-93.4789,0086,-8.19,-5.74,10.0000,235.0000